Time,TemperatureF,DewpointF,PressureIn,WindDirection,WindDirectionDegrees,WindSpeedMPH,WindSpeedGustMPH,Humidity,HourlyPrecipIn,Conditions,Clouds,dailyrainin,SoftwareType,DateUTC
2013-02-01 00:02:00,82.0,82.0,29.73,North,0,0.0,0.0,99,0.00,,,0.00,,2013-01-31 14:02:00,
2013-02-01 00:11:00,82.0,82.0,29.73,North,0,0.0,0.0,99,0.00,,,0.00,,2013-01-31 14:11:00,
2013-02-01 00:21:00,82.0,82.0,29.73,NNW,344,0.0,2.0,99,0.00,,,0.00,,2013-01-31 14:21:00,
2013-02-01 00:31:00,82.0,82.0,29.72,North,1,0.0,1.0,99,0.00,,,0.00,,2013-01-31 14:31:00,
2013-02-01 00:41:00,82.0,82.0,29.72,North,1,0.0,1.0,99,0.00,,,0.00,,2013-01-31 14:41:00,
2013-02-01 00:52:00,81.0,81.0,29.72,North,0,0.0,0.0,99,0.00,,,0.00,,2013-01-31 14:52:00,
2013-02-01 01:02:00,81.0,81.0,29.71,North,0,0.0,0.0,99,0.00,,,0.00,,2013-01-31 15:02:00,
2013-02-01 01:11:00,81.0,81.0,29.71,North,0,0.0,0.0,99,0.00,,,0.00,,2013-01-31 15:11:00,
2013-02-01 01:22:00,82.0,82.0,29.71,North,1,0.0,1.0,99,0.00,,,0.00,,2013-01-31 15:22:00,
2013-02-01 01:32:00,81.0,81.0,29.71,North,0,0.0,0.0,99,0.00,,,0.00,,2013-01-31 15:32:00,
2013-02-01 01:42:00,81.0,81.0,29.71,North,0,0.0,0.0,99,0.00,,,0.00,,2013-01-31 15:42:00,
2013-02-01 01:51:00,81.0,81.0,29.70,North,0,0.0,0.0,99,0.00,,,0.00,,2013-01-31 15:51:00,
2013-02-01 02:03:00,80.0,80.0,29.70,North,0,0.0,0.0,99,0.00,,,0.00,,2013-01-31 16:03:00,
2013-02-01 02:12:00,80.0,80.0,29.70,North,0,0.0,0.0,99,0.00,,,0.00,,2013-01-31 16:12:00,
2013-02-01 02:21:00,80.0,80.0,29.70,NNW,345,0.0,1.0,99,0.00,,,0.00,,2013-01-31 16:21:00,
2013-02-01 02:32:00,81.0,81.0,29.70,North,0,0.0,0.0,99,0.00,,,0.00,,2013-01-31 16:32:00,
2013-02-01 02:41:00,81.0,81.0,29.70,North,0,0.0,0.0,99,0.00,,,0.00,,2013-01-31 16:41:00,
2013-02-01 02:51:00,81.0,81.0,29.70,North,1,0.0,1.0,99,0.00,,,0.00,,2013-01-31 16:51:00,
2013-02-01 03:02:00,81.0,81.0,29.69,NW,314,0.0,2.0,99,0.00,,,0.00,,2013-01-31 17:02:00,
2013-02-01 03:12:00,81.0,81.0,29.69,NW,314,0.0,2.0,99,0.00,,,0.00,,2013-01-31 17:12:00,
2013-02-01 03:22:00,81.0,81.0,29.69,North,0,0.0,0.0,99,0.00,,,0.00,,2013-01-31 17:22:00,
2013-02-01 03:31:00,81.0,81.0,29.69,North,0,0.0,0.0,99,0.00,,,0.00,,2013-01-31 17:31:00,
2013-02-01 03:43:00,81.0,81.0,29.69,North,0,0.0,0.0,99,0.00,,,0.00,,2013-01-31 17:43:00,
2013-02-01 03:53:00,80.0,80.0,29.68,North,0,0.0,0.0,99,0.00,,,0.00,,2013-01-31 17:53:00,
2013-02-01 04:02:00,79.0,79.0,29.69,North,0,0.0,0.0,99,0.00,,,0.00,,2013-01-31 18:02:00,
2013-02-01 04:12:00,79.0,79.0,29.68,North,0,0.0,0.0,99,0.00,,,0.00,,2013-01-31 18:12:00,
2013-02-01 04:21:00,79.0,79.0,29.68,North,0,0.0,0.0,99,0.00,,,0.00,,2013-01-31 18:21:00,
2013-02-01 04:31:00,79.0,79.0,29.68,North,0,0.0,0.0,99,0.00,,,0.00,,2013-01-31 18:31:00,
2013-02-01 04:42:00,79.0,79.0,29.68,North,0,0.0,0.0,99,0.00,,,0.00,,2013-01-31 18:42:00,
2013-02-01 04:52:00,79.0,79.0,29.68,North,0,0.0,0.0,99,0.00,,,0.00,,2013-01-31 18:52:00,
2013-02-01 05:02:00,79.0,79.0,29.68,North,0,0.0,0.0,99,0.00,,,0.00,,2013-01-31 19:02:00,
2013-02-01 05:12:00,79.0,79.0,29.68,North,0,0.0,0.0,99,0.00,,,0.00,,2013-01-31 19:12:00,
2013-02-01 05:21:00,79.0,79.0,29.68,North,0,0.0,0.0,99,0.00,,,0.00,,2013-01-31 19:21:00,
2013-02-01 05:32:00,79.0,79.0,29.68,NW,314,0.0,1.0,99,0.00,,,0.00,,2013-01-31 19:32:00,
2013-02-01 05:42:00,79.0,79.0,29.68,NW,314,0.0,1.0,99,0.00,,,0.00,,2013-01-31 19:42:00,
2013-02-01 05:52:00,79.0,79.0,29.69,North,0,0.0,0.0,99,0.00,,,0.00,,2013-01-31 19:52:00,
2013-02-01 06:01:00,79.0,79.0,29.69,North,0,0.0,0.0,99,0.00,,,0.00,,2013-01-31 20:01:00,
2013-02-01 06:11:00,79.0,79.0,29.69,North,0,0.0,0.0,99,0.00,,,0.00,,2013-01-31 20:11:00,
2013-02-01 06:21:00,79.0,79.0,29.69,North,0,0.0,0.0,99,0.00,,,0.00,,2013-01-31 20:21:00,
2013-02-01 06:31:00,79.0,79.0,29.70,NNW,346,0.0,1.0,99,0.00,,,0.00,,2013-01-31 20:31:00,
2013-02-01 06:41:00,79.0,79.0,29.70,NNW,346,0.0,1.0,99,0.00,,,0.00,,2013-01-31 20:41:00,
2013-02-01 06:52:00,79.0,79.0,29.70,NNW,346,0.0,1.0,99,0.00,,,0.00,,2013-01-31 20:52:00,
2013-02-01 07:02:00,80.0,80.0,29.70,North,1,0.0,1.0,99,0.00,,,0.00,,2013-01-31 21:02:00,
2013-02-01 07:11:00,80.0,80.0,29.70,North,1,0.0,1.0,99,0.00,,,0.00,,2013-01-31 21:11:00,
2013-02-01 07:21:00,80.0,80.0,29.70,NW,314,0.0,1.0,99,0.00,,,0.00,,2013-01-31 21:21:00,
2013-02-01 07:31:00,82.0,82.0,29.71,NW,314,0.0,2.0,99,0.00,,,0.00,,2013-01-31 21:31:00,
2013-02-01 07:42:00,82.0,82.0,29.71,NW,314,0.0,2.0,99,0.00,,,0.00,,2013-01-31 21:42:00,
2013-02-01 07:51:00,84.0,84.0,29.71,NW,314,0.0,2.0,99,0.00,,,0.00,,2013-01-31 21:51:00,
2013-02-01 08:02:00,86.0,86.0,29.72,NNW,342,0.0,2.0,99,0.00,,,0.00,,2013-01-31 22:02:00,
2013-02-01 08:11:00,86.0,86.0,29.72,NNW,342,0.0,2.0,99,0.00,,,0.00,,2013-01-31 22:11:00,
2013-02-01 08:21:00,87.0,87.0,29.72,NW,321,1.0,2.0,99,0.00,,,0.00,,2013-01-31 22:21:00,
2013-02-01 08:32:00,91.0,89.0,29.73,ESE,103,0.0,2.0,95,0.00,,,0.00,,2013-01-31 22:32:00,
2013-02-01 08:42:00,91.0,89.0,29.73,ESE,103,0.0,2.0,95,0.00,,,0.00,,2013-01-31 22:42:00,
2013-02-01 08:51:00,94.0,88.0,29.73,East,85,1.0,3.0,84,0.00,,,0.00,,2013-01-31 22:51:00,
2013-02-01 09:02:00,94.0,88.0,29.73,East,90,0.0,3.0,83,0.00,,,0.00,,2013-01-31 23:02:00,
2013-02-01 09:11:00,94.0,88.0,29.73,East,90,0.0,3.0,83,0.00,,,0.00,,2013-01-31 23:11:00,
2013-02-01 09:21:00,94.0,88.0,29.73,ENE,63,0.0,2.0,84,0.00,,,0.00,,2013-01-31 23:21:00,
2013-02-01 09:31:00,92.0,88.0,29.73,East,88,1.0,4.0,89,0.00,,,0.00,,2013-01-31 23:31:00,
2013-02-01 09:41:00,92.0,88.0,29.73,East,88,1.0,4.0,89,0.00,,,0.00,,2013-01-31 23:41:00,
2013-02-01 09:52:00,94.0,89.0,29.73,SSE,166,0.0,4.0,86,0.00,,,0.00,,2013-01-31 23:52:00,
2013-02-01 10:01:00,95.0,89.0,29.74,West,275,0.0,2.0,83,0.00,,,0.00,,2013-02-01 00:01:00,
2013-02-01 10:11:00,95.0,89.0,29.74,West,275,0.0,2.0,83,0.00,,,0.00,,2013-02-01 00:11:00,
2013-02-01 10:21:00,95.0,89.0,29.74,West,275,0.0,2.0,83,0.00,,,0.00,,2013-02-01 00:21:00,
2013-02-01 10:31:00,100.0,86.0,29.73,North,6,1.0,5.0,65,0.00,,,0.00,,2013-02-01 00:31:00,
2013-02-01 10:42:00,100.0,86.0,29.73,North,6,1.0,5.0,65,0.00,,,0.00,,2013-02-01 00:42:00,
2013-02-01 10:52:00,100.0,86.0,29.73,North,6,1.0,5.0,65,0.00,,,0.00,,2013-02-01 00:52:00,
2013-02-01 11:01:00,101.0,82.0,29.72,North,11,1.0,5.0,56,0.00,,,0.00,,2013-02-01 01:01:00,
2013-02-01 11:11:00,102.0,87.0,29.71,South,177,2.0,5.0,63,0.00,,,0.00,,2013-02-01 01:11:00,
2013-02-01 11:21:00,102.0,87.0,29.71,South,177,2.0,5.0,63,0.00,,,0.00,,2013-02-01 01:21:00,
2013-02-01 11:31:00,100.0,87.0,29.70,SW,233,0.0,7.0,67,0.00,,,0.00,,2013-02-01 01:31:00,
2013-02-01 11:41:00,100.0,87.0,29.70,SW,233,0.0,7.0,67,0.00,,,0.00,,2013-02-01 01:41:00,
2013-02-01 11:51:00,98.0,88.0,29.70,SE,138,2.0,6.0,74,0.00,,,0.00,,2013-02-01 01:51:00,
2013-02-01 12:01:00,97.0,89.0,29.69,SSE,164,3.0,9.0,77,0.00,,,0.00,,2013-02-01 02:01:00,
2013-02-01 12:11:00,97.0,89.0,29.69,SSE,164,3.0,9.0,77,0.00,,,0.00,,2013-02-01 02:11:00,
2013-02-01 12:21:00,98.0,89.0,29.69,SE,145,4.0,11.0,75,0.00,,,0.00,,2013-02-01 02:21:00,
2013-02-01 12:31:00,98.0,88.0,29.67,SSE,148,3.0,7.0,73,0.00,,,0.00,,2013-02-01 02:31:00,
2013-02-01 12:41:00,98.0,88.0,29.67,SSE,148,3.0,7.0,73,0.00,,,0.00,,2013-02-01 02:41:00,
2013-02-01 12:52:00,98.0,89.0,29.67,SSE,153,2.0,8.0,75,0.00,,,0.00,,2013-02-01 02:52:00,
2013-02-01 13:01:00,97.0,90.0,29.66,South,173,2.0,10.0,80,0.00,,,0.00,,2013-02-01 03:01:00,
2013-02-01 13:11:00,97.0,90.0,29.66,South,173,2.0,10.0,80,0.00,,,0.00,,2013-02-01 03:11:00,
2013-02-01 13:32:00,97.0,90.0,29.65,SE,146,4.0,10.0,80,0.00,,,0.00,,2013-02-01 03:32:00,
2013-02-01 13:41:00,97.0,90.0,29.65,SE,146,4.0,10.0,80,0.00,,,0.00,,2013-02-01 03:41:00,
2013-02-01 13:51:00,97.0,90.0,29.65,SE,146,4.0,10.0,80,0.00,,,0.00,,2013-02-01 03:51:00,
2013-02-01 15:31:00,98.0,90.0,29.60,ESE,115,1.0,8.0,78,0.00,,,0.00,,2013-02-01 05:31:00,
2013-02-01 15:41:00,98.0,90.0,29.60,ESE,115,1.0,8.0,78,0.00,,,0.00,,2013-02-01 05:41:00,
2013-02-01 17:01:00,96.0,90.0,29.61,ESE,123,1.0,8.0,83,0.00,,,0.00,,2013-02-01 07:01:00,
2013-02-01 17:11:00,96.0,90.0,29.61,ESE,123,1.0,8.0,83,0.00,,,0.00,,2013-02-01 07:11:00,
2013-02-01 17:21:00,96.0,90.0,29.61,ESE,123,1.0,8.0,83,0.00,,,0.00,,2013-02-01 07:21:00,
2013-02-01 17:32:00,92.0,89.0,29.62,SE,127,1.0,4.0,91,0.00,,,0.00,,2013-02-01 07:32:00,
2013-02-01 17:42:00,92.0,89.0,29.62,SE,127,1.0,4.0,91,0.00,,,0.00,,2013-02-01 07:42:00,
2013-02-01 17:52:00,90.0,89.0,29.62,ESE,123,1.0,8.0,97,0.00,,,0.00,,2013-02-01 07:52:00,
2013-02-01 18:01:00,89.0,89.0,29.62,SSE,165,0.0,5.0,99,0.00,,,0.00,,2013-02-01 08:01:00,
2013-02-01 18:11:00,89.0,89.0,29.62,SSE,165,0.0,5.0,99,0.00,,,0.00,,2013-02-01 08:11:00,
2013-02-01 18:21:00,89.0,89.0,29.62,SE,125,0.0,4.0,99,0.00,,,0.00,,2013-02-01 08:21:00,
2013-02-01 18:31:00,89.0,89.0,29.63,SE,124,1.0,5.0,99,0.00,,,0.00,,2013-02-01 08:31:00,
2013-02-01 18:42:00,89.0,89.0,29.63,SE,124,1.0,5.0,99,0.00,,,0.00,,2013-02-01 08:42:00,
2013-02-01 18:52:00,88.0,88.0,29.63,ESE,116,1.0,4.0,99,0.00,,,0.00,,2013-02-01 08:52:00,
2013-02-01 19:01:00,88.0,88.0,29.64,SE,129,1.0,4.0,99,0.00,,,0.00,,2013-02-01 09:01:00,
2013-02-01 19:11:00,88.0,88.0,29.64,SE,129,1.0,4.0,99,0.00,,,0.00,,2013-02-01 09:11:00,
2013-02-01 19:21:00,88.0,88.0,29.64,SE,134,0.0,4.0,99,0.00,,,0.00,,2013-02-01 09:21:00,
2013-02-01 19:31:00,87.0,87.0,29.65,SE,139,1.0,4.0,99,0.00,,,0.00,,2013-02-01 09:31:00,
2013-02-01 19:41:00,87.0,87.0,29.65,SE,139,1.0,4.0,99,0.00,,,0.00,,2013-02-01 09:41:00,
2013-02-01 19:51:00,87.0,87.0,29.65,SE,139,1.0,4.0,99,0.00,,,0.00,,2013-02-01 09:51:00,
2013-02-01 20:01:00,87.0,87.0,29.66,SE,132,0.0,4.0,99,0.00,,,0.00,,2013-02-01 10:01:00,
2013-02-01 20:11:00,87.0,87.0,29.66,SE,132,0.0,4.0,99,0.00,,,0.00,,2013-02-01 10:11:00,
2013-02-01 20:21:00,87.0,87.0,29.66,ESE,123,0.0,4.0,99,0.00,,,0.00,,2013-02-01 10:21:00,
2013-02-01 20:31:00,86.0,86.0,29.67,ESE,108,0.0,2.0,99,0.00,,,0.00,,2013-02-01 10:31:00,
2013-02-01 20:42:00,86.0,86.0,29.67,ESE,108,0.0,2.0,99,0.00,,,0.00,,2013-02-01 10:42:00,
2013-02-01 20:52:00,86.0,86.0,29.67,ESE,121,0.0,4.0,99,0.00,,,0.00,,2013-02-01 10:52:00,
2013-02-01 21:01:00,85.0,85.0,29.67,ESE,109,0.0,2.0,99,0.00,,,0.00,,2013-02-01 11:01:00,
2013-02-01 21:11:00,85.0,85.0,29.67,ESE,109,0.0,2.0,99,0.00,,,0.00,,2013-02-01 11:11:00,
2013-02-01 21:21:00,85.0,85.0,29.67,ESE,106,0.0,2.0,99,0.00,,,0.00,,2013-02-01 11:21:00,
2013-02-01 21:31:00,85.0,85.0,29.68,North,0,0.0,0.0,99,0.00,,,0.00,,2013-02-01 11:31:00,
2013-02-01 21:41:00,85.0,85.0,29.68,North,0,0.0,0.0,99,0.00,,,0.00,,2013-02-01 11:41:00,
2013-02-01 21:52:00,84.0,84.0,29.68,North,0,0.0,0.0,99,0.00,,,0.00,,2013-02-01 11:52:00,
2013-02-01 22:02:00,84.0,84.0,29.68,North,0,0.0,0.0,99,0.00,,,0.00,,2013-02-01 12:02:00,
2013-02-01 22:12:00,84.0,84.0,29.68,North,0,0.0,0.0,99,0.00,,,0.00,,2013-02-01 12:12:00,
2013-02-01 22:22:00,84.0,84.0,29.68,North,0,0.0,0.0,99,0.00,,,0.00,,2013-02-01 12:22:00,
2013-02-01 22:32:00,84.0,84.0,29.69,North,0,0.0,0.0,99,0.00,,,0.00,,2013-02-01 12:32:00,
2013-02-01 22:42:00,84.0,84.0,29.69,North,0,0.0,0.0,99,0.00,,,0.00,,2013-02-01 12:42:00,
2013-02-01 22:52:00,84.0,84.0,29.69,North,0,0.0,0.0,99,0.00,,,0.00,,2013-02-01 12:52:00,
2013-02-01 23:01:00,83.0,83.0,29.69,North,0,0.0,0.0,99,0.00,,,0.00,,2013-02-01 13:01:00,
2013-02-01 23:11:00,83.0,83.0,29.69,North,0,0.0,0.0,99,0.00,,,0.00,,2013-02-01 13:11:00,
2013-02-01 23:21:00,83.0,83.0,29.69,North,0,0.0,0.0,99,0.00,,,0.00,,2013-02-01 13:21:00,
2013-02-01 23:32:00,83.0,83.0,29.69,North,0,0.0,0.0,99,0.00,,,0.00,,2013-02-01 13:32:00,
2013-02-01 23:42:00,83.0,83.0,29.69,North,0,0.0,0.0,99,0.00,,,0.00,,2013-02-01 13:42:00,
2013-02-01 23:52:00,83.0,83.0,29.69,North,0,0.0,0.0,99,0.00,,,0.00,,2013-02-01 13:52:00,